Home > Weather > Armidale > Past weeks

Flag for Australia Past Weather in Armidale, New South Wales, Australia — Yesterday and Last 2 Weeks

Now
37 °F

Overcast.


Feels Like: 31 °F
Forecast: 34 / 50 °F
Wind: 8 mph from Northwest

Location: Armidale Airport Aws

Current Time: Jul 26, 2016 at 10:23:16 PM

Latest Report: Jul 26, 2016 at 9:00 PM


Visibility: N/A

Pressure: 30.08 "Hg (26.64 "Hg at 981m altitude)

Humidity: 86%

Dew Point: 34 °F

Location of ArmidaleLocation

Past Weather in Armidale — Graph

°F

Armidale Temperature Yesterday

Maximum temperature yesterday: 49 °F (at 2:00 PM)
Minimum temperature yesterday: 35 °F (at 12:00 AM)
Average temperature yesterday: 41 °F

High & Low Weather Summary for the Past Weeks

 TemperatureHumidityPressure
High66 °F (Jul 20, 12:00 PM)100% (Jul 12, 2:00 PM)30.45 "Hg (Jul 12, 2:00 PM)
Low27 °F (Jul 15, 6:00 AM)25% (Jul 15, 2:00 PM)29.72 "Hg (Jul 23, 5:00 AM)
Average47 °F83%30.16 "Hg
* Reported Jul 11 9:00 PM — Jul 26 9:00 PM, Armidale, Weather by CustomWeather, © 2016

Note: Actual official high and low records may vary slightly from our data, if they occured in-between our weather recording intervals... More about our weather records

Advertising

Armidale Weather History for the Previous 24 Hours

Scroll right to see more
 ConditionsComfort  
Time TempWeatherWind HumidityBarometerVisibility
9:00 PM
Tue, Jul 26
37 °FOvercast.8 mph86%30.08 "HgN/A
8:00 PM40 °FChilly.10 mph83%30.07 "HgN/A
6:00 PM41 °FQuite cool.7 mph72%30.06 "HgN/A
5:00 PM47 °FCool.10 mph63%30.05 "HgN/A
3:00 PM52 °FCool.14 mph52%30.04 "HgN/A
2:00 PM52 °FCool.16 mph51%30.04 "HgN/A
12:00 PM49 °FCool.14 mph56%30.06 "HgN/A
11:00 AM46 °FCool.16 mph60%30.09 "HgN/A
9:00 AM41 °FQuite cool.18 mph78%30.11 "HgN/A
8:00 AM38 °FChilly.16 mph86%30.11 "HgN/A
6:00 AM35 °FChilly.14 mph93%30.09 "HgN/A
5:00 AM34 °FChilly.14 mph91%30.08 "HgN/A
3:00 AM35 °FChilly.15 mph83%30.08 "HgN/A
2:00 AM36 °FChilly.13 mph80%30.08 "HgN/A
12:00 AM35 °FChilly.14 mph79%30.09 "HgN/A
11:00 PM
Mon, Jul 25
36 °FChilly.13 mph75%30.08 "HgN/A
Weather by CustomWeather, © 2016

See weather overviewHow to use our weather pages